| time (UTC) | temp F | wind direction | speed knots | gust knots | rain 1hr in | rain 24hr in | rain mn in | humidity % | barometer mb |
| 20260507060023 | 50 | 321 | 0.0 | 2.6 | 0.00 | 0.01 | 0.00 | 86 | 1065.1 |
| 20260507054521 | 49 | 277 | 0.0 | 0.0 | 0.00 | 0.01 | 0.00 | 87 | 1065.0 |
| 20260507053018 | 49 | 245 | 0.0 | 0.0 | 0.00 | 0.01 | 0.00 | 87 | 1064.9 |
| 20260507051518 | 49 | 245 | 0.0 | 0.0 | 0.00 | 0.01 | 0.00 | 87 | 1064.7 |
| 20260507050036 | 49 | 245 | 0.0 | 0.0 | 0.00 | 0.01 | 0.00 | 87 | 1064.6 |
| 20260507044515 | 49 | 245 | 0.0 | 0.0 | 0.00 | 0.01 | 0.00 | 87 | 1064.4 |
| 20260507043014 | 49 | 240 | 0.0 | 0.0 | 0.00 | 0.01 | 0.00 | 87 | 1064.3 |
| 20260507041513 | 48 | 240 | 0.0 | 0.0 | 0.00 | 0.01 | 0.00 | 88 | 1064.2 |
| 20260507040011 | 48 | 240 | 0.0 | 0.0 | 0.00 | 0.01 | 0.00 | 88 | 1064.0 |
| 20260507034509 | 48 | 240 | 0.0 | 0.0 | 0.00 | 0.01 | 0.00 | 88 | 1063.8 |
| 20260507033008 | 48 | 240 | 0.0 | 0.0 | 0.00 | 0.01 | 0.00 | 88 | 1063.8 |
| 20260507031506 | 49 | 240 | 0.0 | 0.0 | 0.00 | 0.01 | 0.00 | 88 | 1063.8 |
| 20260507030006 | 48 | 240 | 0.0 | 0.0 | 0.00 | 0.01 | 0.00 | 88 | 1063.7 |
| 20260507024505 | 48 | 300 | 0.0 | 0.0 | 0.00 | 0.01 | 0.00 | 88 | 1063.6 |
| 20260507023003 | 49 | 300 | 0.0 | 0.0 | 0.00 | 0.01 | 0.00 | 88 | 1063.6 |
| 20260507021502 | 49 | 300 | 0.0 | 0.0 | 0.00 | 0.01 | 0.00 | 87 | 1063.5 |
| 20260507020002 | 49 | 300 | 0.0 | 0.0 | 0.00 | 0.01 | 0.00 | 87 | 1063.3 |
| 20260507014623 | 49 | 300 | 0.0 | 0.0 | 0.00 | 0.01 | 0.00 | 86 | 1063.2 |
| 20260507013101 | 49 | 300 | 0.0 | 0.0 | 0.00 | 0.01 | 0.00 | 86 | 1063.2 |
| 20260507011601 | 49 | 300 | 0.0 | 0.0 | 0.00 | 0.01 | 0.00 | 85 | 1063.2 |
| 20260507010056 | 49 | 300 | 0.0 | 0.0 | 0.00 | 0.01 | 0.00 | 85 | 1063.2 |
| 20260507004556 | 49 | 300 | 0.0 | 0.0 | 0.00 | 0.01 | 0.00 | 85 | 1063.2 |
| 20260507003154 | 49 | 300 | 0.0 | 0.0 | 0.00 | 0.01 | 0.00 | 84 | 1063.2 |
| 20260507001601 | 49 | 300 | 0.0 | 0.0 | 0.00 | 0.01 | 0.00 | 84 | 1063.1 |
| 20260507000116 | 49 | 300 | 0.0 | 0.0 | 0.00 | 0.01 | 0.00 | 84 | 1063.1 |
| 20260506234610 | 49 | 300 | 0.0 | 0.0 | 0.00 | 0.02 | 0.00 | 84 | 1063.1 |
| 20260506233050 | 49 | 300 | 0.0 | 0.0 | 0.00 | 0.02 | 0.00 | 83 | 1063.0 |
| 20260506231547 | 49 | 300 | 0.0 | 0.0 | 0.00 | 0.02 | 0.00 | 83 | 1063.0 |
| 20260506230052 | 50 | 300 | 0.0 | 0.0 | 0.00 | 0.02 | 0.00 | 82 | 1062.8 |
| 20260506224544 | 50 | 300 | 0.0 | 0.0 | 0.00 | 0.02 | 0.00 | 82 | 1062.6 |
| 20260506223040 | 50 | 300 | 0.0 | 0.0 | 0.00 | 0.02 | 0.00 | 81 | 1062.5 |
| 20260506221551 | 50 | 300 | 0.0 | 0.0 | 0.00 | 0.02 | 0.00 | 80 | 1062.4 |
| 20260506220044 | 51 | 300 | 0.0 | 0.0 | 0.00 | 0.02 | 0.00 | 81 | 1062.4 |
| 20260506214537 | 51 | 300 | 0.0 | 0.0 | 0.00 | 0.03 | 0.02 | 80 | 1062.4 |
| 20260506213043 | 51 | 300 | 0.0 | 0.0 | 0.00 | 0.03 | 0.02 | 79 | 1062.3 |
| 20260506211542 | 51 | 301 | 0.0 | 0.0 | 0.00 | 0.03 | 0.02 | 79 | 1062.2 |
| 20260506210043 | 51 | 301 | 0.0 | 0.0 | 0.00 | 0.03 | 0.02 | 78 | 1062.1 |
| 20260506204534 | 51 | 231 | 0.0 | 0.0 | 0.00 | 0.03 | 0.02 | 78 | 1062.0 |
| 20260506203032 | 52 | 231 | 0.0 | 0.0 | 0.00 | 0.03 | 0.02 | 76 | 1061.8 |
| 20260506201535 | 52 | 231 | 0.0 | 0.0 | 0.00 | 0.03 | 0.02 | 76 | 1061.8 |
| 20260506200031 | 52 | 131 | 0.0 | 2.6 | 0.00 | 0.03 | 0.02 | 75 | 1061.6 |
| 20260506194526 | 52 | 186 | 0.0 | 4.3 | 0.00 | 0.03 | 0.02 | 76 | 1061.6 |
| 20260506193038 | 52 | 269 | 0.0 | 0.9 | 0.00 | 0.03 | 0.02 | 76 | 1061.5 |
| 20260506191522 | 52 | 214 | 0.0 | 2.6 | 0.00 | 0.03 | 0.02 | 76 | 1061.2 |
| 20260506190021 | 52 | 240 | 0.9 | 5.2 | 0.00 | 0.03 | 0.02 | 75 | 1061.0 |
| 20260506184520 | 52 | 257 | 0.0 | 2.6 | 0.00 | 0.03 | 0.02 | 75 | 1061.0 |
| 20260506183019 | 53 | 295 | 0.9 | 5.2 | 0.00 | 0.03 | 0.02 | 73 | 1060.9 |
| 20260506181533 | 54 | 271 | 0.9 | 4.3 | 0.00 | 0.03 | 0.02 | 71 | 1060.5 |
| 20260506180014 | 54 | 295 | 0.9 | 5.2 | 0.00 | 0.03 | 0.02 | 70 | 1060.4 |
| 20260506174512 | 55 | 41 | 1.7 | 6.1 | 0.00 | 0.03 | 0.02 | 68 | 1060.2 |
| 20260506173010 | 55 | 224 | 0.0 | 5.2 | 0.00 | 0.03 | 0.02 | 67 | 1060.0 |
| 20260506171514 | 56 | 321 | 1.7 | 3.5 | 0.00 | 0.03 | 0.02 | 66 | 1059.8 |
| 20260506170007 | 56 | 240 | 0.9 | 4.3 | 0.00 | 0.03 | 0.02 | 63 | 1059.6 |
| 20260506164505 | 57 | 89 | 1.7 | 5.2 | 0.00 | 0.03 | 0.02 | 61 | 1059.5 |
| 20260506163001 | 58 | 114 | 0.0 | 4.3 | 0.00 | 0.03 | 0.02 | 64 | 1059.3 |
| 20260506161559 | 57 | 292 | 2.6 | 6.1 | 0.00 | 0.03 | 0.02 | 64 | 1059.2 |
| 20260506160059 | 58 | 266 | 0.0 | 3.5 | 0.00 | 0.03 | 0.02 | 66 | 1059.2 |
| 20260506154613 | 58 | 90 | 0.9 | 5.2 | 0.00 | 0.03 | 0.02 | 65 | 1059.2 |
| 20260506153057 | 59 | 293 | 0.9 | 3.5 | 0.00 | 0.03 | 0.02 | 66 | 1059.1 |
| 20260506151555 | 59 | 276 | 0.9 | 7.0 | 0.00 | 0.03 | 0.02 | 64 | 1059.0 |
| 20260506150055 | 59 | 255 | 1.7 | 7.0 | 0.00 | 0.03 | 0.02 | 62 | 1058.9 |
| 20260506144558 | 59 | 303 | 0.0 | 7.0 | 0.00 | 0.03 | 0.02 | 62 | 1058.9 |
| 20260506143052 | 59 | 336 | 0.9 | 4.3 | 0.00 | 0.03 | 0.02 | 63 | 1058.8 |
| 20260506141555 | 59 | 207 | 0.9 | 5.2 | 0.00 | 0.03 | 0.02 | 61 | 1058.9 |
| 20260506140053 | 60 | 15 | 0.9 | 3.5 | 0.00 | 0.03 | 0.02 | 62 | 1058.9 |
| 20260506134550 | 60 | 263 | 0.0 | 4.3 | 0.00 | 0.03 | 0.02 | 63 | 1058.8 |
| 20260506133101 | 60 | 70 | 0.0 | 4.3 | 0.00 | 0.03 | 0.02 | 63 | 1058.8 |
| 20260506131546 | 60 | 288 | 0.9 | 3.5 | 0.00 | 0.03 | 0.02 | 65 | 1058.8 |
| 20260506130045 | 60 | 290 | 0.9 | 7.8 | 0.00 | 0.03 | 0.02 | 65 | 1058.8 |
| 20260506124541 | 59 | 278 | 0.9 | 4.3 | 0.00 | 0.03 | 0.02 | 69 | 1058.7 |
| 20260506123042 | 57 | 262 | 0.0 | 0.9 | 0.00 | 0.03 | 0.02 | 72 | 1058.7 |
| 20260506121539 | 57 | 270 | 1.7 | 5.2 | 0.00 | 0.03 | 0.02 | 71 | 1058.7 |
| 20260506120039 | 57 | 280 | 0.0 | 4.3 | 0.00 | 0.03 | 0.02 | 71 | 1058.6 |
| 20260506114541 | 57 | 28 | 0.9 | 5.2 | 0.00 | 0.04 | 0.02 | 73 | 1058.6 |
| 20260506113038 | 57 | 266 | 0.9 | 5.2 | 0.00 | 0.04 | 0.02 | 73 | 1058.6 |
| 20260506111536 | 56 | 312 | 1.7 | 4.3 | 0.00 | 0.04 | 0.02 | 74 | 1058.6 |
| 20260506110042 | 57 | 235 | 1.7 | 5.2 | 0.00 | 0.04 | 0.02 | 72 | 1058.7 |
| 20260506104559 | 58 | 56 | 0.9 | 5.2 | 0.00 | 0.04 | 0.02 | 73 | 1058.7 |
| 20260506103039 | 58 | 328 | 1.7 | 6.1 | 0.00 | 0.04 | 0.02 | 76 | 1058.8 |
| 20260506101532 | 57 | 352 | 0.9 | 5.2 | 0.00 | 0.04 | 0.02 | 79 | 1058.7 |
| 20260506100031 | 56 | 27 | 0.9 | 3.5 | 0.00 | 0.04 | 0.02 | 82 | 1058.7 |
| 20260506094532 | 56 | 329 | 0.9 | 5.2 | 0.00 | 0.04 | 0.02 | 84 | 1058.7 |
| 20260506093021 | 54 | 316 | 0.9 | 3.5 | 0.00 | 0.04 | 0.02 | 86 | 1058.7 |
| 20260506091518 | 53 | 330 | 0.9 | 4.3 | 0.00 | 0.04 | 0.02 | 89 | 1058.6 |
| 20260506090014 | 52 | 254 | 0.0 | 3.5 | 0.00 | 0.04 | 0.02 | 92 | 1058.5 |
| 20260506084512 | 51 | 317 | 0.9 | 3.5 | 0.00 | 0.04 | 0.02 | 93 | 1058.6 |
| 20260506083025 | 50 | 259 | 0.0 | 3.5 | 0.00 | 0.04 | 0.02 | 93 | 1058.4 |
| 20260506081510 | 50 | 208 | 0.0 | 2.6 | 0.00 | 0.04 | 0.02 | 93 | 1058.3 |
| 20260506073009 | 48 | 271 | 0.0 | 2.6 | 0.01 | 0.04 | 0.02 | 93 | 1058.2 |
| 20260506071509 | 49 | 357 | 0.0 | 4.3 | 0.01 | 0.04 | 0.02 | 93 | 1058.2 |
| 20260506061505 | 48 | 358 | 0.0 | 2.6 | 0.00 | 0.03 | 0.02 | 91 | 1058.0 |